Location: Charbonni�res
(45.9952°N, 2.9982°E)
Time: 18:01:34
(UTC+00:00)

Cosmos 405 Rocket - Pass Details

Date: 29 November 2020
Orbit: 489 x 553 km, 81.3° (Epoch: 17 January)

Event Time Altitude Azimuth Distance (km) Brightness Sun altitude
Rises 05:38:10 0° 192° (SSW) 2,554 6.3 -15.0°
Reaches altitude 10° 05:40:15 10° 194° (SSW) 1,682 5.3 -14.7°
Maximum altitude 05:43:56 77° 280° (W) 515 2.5 -14.1°
Drops below altitude 10° 05:47:42 10° 8° (N) 1,720 5.3 -13.4°
Sets 05:49:51 0° 10° (N) 2,619 6.2 -13.1°
